Tracking 18840 objects as of 18-November-2017
HD Live streaming from Space Station
objects crossing your sky now

CZ-3B DEB

Track CZ-3B DEB now!


NORAD ID: 40160
Int'l Code: 2010-042M
Perigee: 1,172.0 km
Apogee: 41,179.2 km
Inclination: 27.2 °
Period: 758.3 minutes
Semi major axis: 27546 km
RCS: Unknown
Launch date: September 4, 2010
Source: People's Republic of China (PRC)
Launch site: Xichang Space Center, China (XSC)

Note: This is SATELLITE DEBRIS
aabbcc
Your satellite tracking list
Your tracking list is empty




NASA's NSSDC Master Catalog

Two Line Element Set (TLE):
1 40160U 10042M   17322.33335333 -.00000211  00000-0  00000+0 0  9993
2 40160  27.2165 299.7414 7261738 166.6671 327.9135  1.89889817 27681
Source of the keplerian elements: AFSPC